Location: Newark
(10.6558°N, 61.4122°W)
Time: 09:43:13
(UTC+00:00)

Hubble Space Telescope - Visible Passes

Search period start: 22 August 2019 00:00
Search period end: 01 September 2019 00:00
Orbit: 536 x 540 km, 28.5° (Epoch: 21 August)

Date Brightness Start Highest point End Pass type
(mag) Time Alt. Az. Time Alt. Az. Time Alt. Az.
23 Aug 3.7 00:36:39 10° NW 00:37:13 13° NNW 00:37:13 13° NNW visible
23 Aug 3.3 22:47:10 10° N 22:47:55 10° NNE 22:48:40 10° NNE visible
24 Aug 3.2 00:25:53 10° NW 00:27:13 18° NNW 00:27:13 18° NNW visible
25 Aug 2.6 00:15:10 10° NW 00:17:16 26° NNW 00:17:16 26° NNW visible
26 Aug 1.9 00:04:32 10° NW 00:07:22 40° NW 00:07:22 40° NW visible
26 Aug 1.0 23:53:57 10° WNW 23:57:32 66° WNW 23:57:32 66° WNW visible
27 Aug 0.8 23:43:27 10° WNW 23:47:31 65° SSW 23:47:46 64° S visible
28 Aug 1.5 23:33:02 10° WNW 23:36:58 45° SSW 23:38:03 36° SSE visible
29 Aug 2.1 23:22:43 10° W 23:26:24 32° SSW 23:28:24 21° SSE visible
30 Aug 2.6 23:12:33 10° W 23:15:51 23° SSW 23:18:47 12° SSE visible
31 Aug 3.1 23:02:37 10° WSW 23:05:18 17° SSW 23:08:00 10° S visible
